Location: Sweet Grass
(48.9965°N, 111.9649°W)
Time: 17:17:09
(UTC+00:00)

DX 1 - Pass Details

Date: 11 April 2023
Orbit: 615 x 625 km, 98.4° (Epoch: 04 June)

Event Time Altitude Azimuth Distance (km) Brightness Sun altitude
Rises 04:58:41 0° 26° (NNE) 2,900 ? -24.0°
Reaches altitude 10° 05:01:16 10° 41° (NE) 1,990 ? -24.3°
Enters shadow 05:02:17 15° 51° (NE) 1,695 ? -24.4°
